Regional Weather Roundup
Issued by NWS

Home | Current Version | Previous Version | Graphics & Text | Print | Product List | Glossary On
Versions: 1 2 3 4 5 6 7 8 9 10 11 12 13 14 15 16 17 18 19 20 21 22 23 24 25 26 27 28 29 30 31 32 33 34 35 36 37 38 39 40 41 42 43 44 45 46 47 48 49 50
205
ASUS45 KCYS 280210
RWRWY

WYOMING REGIONAL WEATHER ROUNDUP
NATIONAL WEATHER SERVICE CHEYENNE WY
800 PM MDT THU APR 27 2017

NOTE:  "FAIR" INDICATES FEW OR NO CLOUDS BELOW 12,000 FEET
WITH NO SIGNIFICANT WEATHER AND/OR OBSTRUCTIONS TO VISIBILITY.

WYZ001-280300-
YELLOWSTONE NATIONAL PARK

CITY           SKY/WX    TMP DP  RH WIND       PRES   REMARKS
LK YELLOWSTONE   N/A     26  22  84 VRB3      29.75R
W YELLOWSTONE  NOT AVBL

$$
WYZ002>013-054>058-071-098>099-280300-
NORTHERN WYOMING

CITY           SKY/WX    TMP DP  RH WIND       PRES   REMARKS
JACKSON        FLURRIES  32  28  86 W10       29.74S WCI  24
CODY           CLOUDY    37  33  85 N17G23    29.71R WCI  27
GREYBULL       CLOUDY    46  34  62 NW36G44   29.60R
WORLAND        CLOUDY    44  35  70 NW18G33   29.61R
SHERIDAN       LGT SNOW  33  32  96 W6        29.71R FOG     WCI  28
BUFFALO        SNOW      34  31  88 NW17G26   29.67R VSB 1/2 WCI  23
GILLETTE       LGT SNOW  34  33  96 N5        29.66R WCI  30
HULETT         CLOUDY    37  32  81 E9        29.67R WCI  31
NEWCASTLE      RAIN      37  34  87 E5        29.65R WCI  34

$$
WYZ014>020-022>026-101>103-280300-
CENTRAL WYOMING

CITY           SKY/WX    TMP DP  RH WIND       PRES   REMARKS
BIG PINEY      FAIR      32  21  64 NW18      29.73R WCI  20
PINEDALE       FAIR      32  21  64 NW18      29.72R WCI  20
DUBOIS         CLOUDY    32  21  64 NW17      29.67S WCI  21
LANDER         CLOUDY    34  30  85 W13       29.65R WCI  25
RIVERTON       FLURRIES  34  32  92 W18       29.65R WCI  23
CASPER         CLOUDY    35  33  92 N9        29.61R WCI  28
DOUGLAS        LGT RAIN  39  36  89 E6        29.59R WCI  35

$$
WYZ021-027>030-104>119-280300-
SOUTHERN WYOMING

CITY           SKY/WX    TMP DP  RH WIND       PRES   REMARKS
EVANSTON       CLOUDY    31  24  75 W16       29.80R WCI  20
KEMMERER         N/A     30  25  80 W16G25    29.75S WCI  19
FORT BRIDGER   FAIR      31  26  81 W15       29.80R WCI  21
ROCK SPRINGS   CLOUDY    37  16  42 W26G37    29.72R WCI  25
DIXON            N/A     39  26  59 W12G18    29.72R WCI  32
RAWLINS        LGT SNOW  33  29  85 W20G32    29.65R FOG     WCI  21
SARATOGA       FAIR      34  23  64 W16       29.67R WCI  23
LARAMIE        FAIR      33  23  66 MISG      29.62R
CHEYENNE       FAIR      43  24  47 NW15G21   29.59R
TORRINGTON     LGT RAIN  43  41  93 E9        29.55S
PINE BLUFFS    FAIR      37  36  93 E3        29.59R

$$




USA.gov is the U.S. government's official web portal to all federal, state and local government web resources and services.